Time,TemperatureF,DewpointF,PressureIn,WindDirection,WindDirectionDegrees,WindSpeedMPH,WindSpeedGustMPH,Humidity,HourlyPrecipIn,Conditions,Clouds,dailyrainin,SoftwareType,DateUTC
2013-07-16 00:04:00,57.0,51.5,29.84,SW,225,3.1,7.8,82,0.00,,,0.00,WUHU216HW,2013-07-16 07:04:00,
2013-07-16 00:09:00,56.8,51.3,29.83,SSW,203,4.2,7.8,82,0.00,,,0.00,WUHU216HW,2013-07-16 07:09:00,
2013-07-16 00:14:00,56.8,51.3,29.83,WSW,248,0.0,5.8,82,0.00,,,0.00,WUHU216HW,2013-07-16 07:14:00,
2013-07-16 00:19:00,56.8,51.3,29.83,SW,225,0.0,0.4,82,0.00,,,0.00,WUHU216HW,2013-07-16 07:19:00,
2013-07-16 00:24:00,56.8,51.3,29.83,SW,225,6.2,6.2,82,0.00,,,0.00,WUHU216HW,2013-07-16 07:24:00,
2013-07-16 00:29:00,56.8,51.3,29.83,SSW,203,6.0,6.2,82,0.00,,,0.00,WUHU216HW,2013-07-16 07:29:00,
2013-07-16 00:35:00,56.8,51.3,29.83,West,270,6.4,6.4,82,0.00,,,0.00,WUHU216HW,2013-07-16 07:35:00,
2013-07-16 00:40:00,56.8,51.3,29.83,SW,225,8.2,8.2,82,0.00,,,0.00,WUHU216HW,2013-07-16 07:40:00,
2013-07-16 00:45:00,56.8,51.3,29.83,South,180,3.8,8.2,82,0.00,,,0.00,WUHU216HW,2013-07-16 07:45:00,
2013-07-16 00:50:00,56.8,51.3,29.82,SW,225,0.0,8.2,82,0.00,,,0.00,WUHU216HW,2013-07-16 07:50:00,
2013-07-16 00:55:00,56.8,51.3,29.83,SW,225,4.9,4.9,82,0.00,,,0.00,WUHU216HW,2013-07-16 07:55:00,
2013-07-16 01:00:00,56.8,51.3,29.83,SW,225,0.0,4.9,82,0.00,,,0.00,WUHU216HW,2013-07-16 08:00:00,
2013-07-16 01:05:00,56.8,51.3,29.83,WNW,293,0.0,6.9,82,0.00,,,0.00,WUHU216HW,2013-07-16 08:05:00,
2013-07-16 01:10:00,56.6,51.1,29.83,North,0,0.0,6.9,82,0.00,,,0.00,WUHU216HW,2013-07-16 08:10:00,
2013-07-16 01:15:00,56.6,51.1,29.83,SW,225,0.8,2.4,82,0.00,,,0.00,WUHU216HW,2013-07-16 08:15:00,
2013-07-16 01:20:00,56.4,51.0,29.83,SSW,203,3.1,3.5,82,0.00,,,0.00,WUHU216HW,2013-07-16 08:20:00,
2013-07-16 01:25:00,56.4,51.0,29.83,SW,225,6.0,6.0,82,0.00,,,0.00,WUHU216HW,2013-07-16 08:25:00,
2013-07-16 01:31:00,56.4,51.0,29.83,SSW,203,1.5,6.0,82,0.00,,,0.00,WUHU216HW,2013-07-16 08:31:00,
2013-07-16 01:36:00,56.4,51.0,29.83,SE,135,0.0,6.0,82,0.00,,,0.00,WUHU216HW,2013-07-16 08:36:00,
2013-07-16 01:41:00,56.4,51.0,29.83,SSW,203,2.9,2.9,82,0.00,,,0.00,WUHU216HW,2013-07-16 08:41:00,
2013-07-16 01:46:00,56.4,51.0,29.83,SW,225,1.3,4.2,82,0.00,,,0.00,WUHU216HW,2013-07-16 08:46:00,
2013-07-16 01:51:00,56.3,50.8,29.83,SSW,203,2.0,11.1,82,0.00,,,0.00,WUHU216HW,2013-07-16 08:51:00,
2013-07-16 01:56:00,56.3,50.8,29.83,SW,225,0.0,11.1,82,0.00,,,0.00,WUHU216HW,2013-07-16 08:56:00,
2013-07-16 02:01:00,56.3,50.8,29.83,SW,225,9.1,9.1,82,0.00,,,0.00,WUHU216HW,2013-07-16 09:01:00,
2013-07-16 02:06:00,56.3,50.8,29.83,SSW,203,5.1,9.1,82,0.00,,,0.00,WUHU216HW,2013-07-16 09:06:00,
2013-07-16 02:11:00,56.3,50.8,29.83,SW,225,4.0,9.1,82,0.00,,,0.00,WUHU216HW,2013-07-16 09:11:00,
2013-07-16 02:16:00,56.3,50.8,29.83,SW,225,2.2,9.6,82,0.00,,,0.00,WUHU216HW,2013-07-16 09:16:00,
2013-07-16 02:21:00,56.1,50.6,29.83,SW,225,2.9,9.6,82,0.00,,,0.00,WUHU216HW,2013-07-16 09:21:00,
2013-07-16 02:26:00,56.3,50.8,29.83,North,0,4.0,4.0,82,0.00,,,0.00,WUHU216HW,2013-07-16 09:26:00,
2013-07-16 02:31:00,56.1,50.6,29.83,West,270,1.3,4.6,82,0.00,,,0.00,WUHU216HW,2013-07-16 09:31:00,
2013-07-16 02:36:00,56.1,50.6,29.83,WSW,248,0.0,6.0,82,0.00,,,0.00,WUHU216HW,2013-07-16 09:36:00,
2013-07-16 02:41:00,56.1,50.6,29.83,East,90,0.0,6.0,82,0.00,,,0.00,WUHU216HW,2013-07-16 09:41:00,
2013-07-16 02:46:00,56.1,50.6,29.84,SSW,203,11.8,11.8,82,0.00,,,0.00,WUHU216HW,2013-07-16 09:46:00,
2013-07-16 02:52:00,55.9,50.1,29.83,SSW,203,2.0,11.8,81,0.00,,,0.00,WUHU216HW,2013-07-16 09:52:00,
2013-07-16 02:57:00,55.9,50.1,29.83,North,0,0.0,7.8,81,0.00,,,0.00,WUHU216HW,2013-07-16 09:57:00,
2013-07-16 03:02:00,55.9,50.1,29.83,SW,225,2.2,7.8,81,0.00,,,0.00,WUHU216HW,2013-07-16 10:02:00,
2013-07-16 03:07:00,55.9,50.1,29.83,SW,225,0.0,7.6,81,0.00,,,0.00,WUHU216HW,2013-07-16 10:07:00,
2013-07-16 03:12:00,55.9,50.1,29.83,South,180,5.5,7.6,81,0.00,,,0.00,WUHU216HW,2013-07-16 10:12:00,
2013-07-16 03:17:00,55.9,50.1,29.83,WNW,293,0.0,5.5,81,0.00,,,0.00,WUHU216HW,2013-07-16 10:17:00,
2013-07-16 03:22:00,55.9,50.1,29.83,SW,225,6.4,6.4,81,0.00,,,0.00,WUHU216HW,2013-07-16 10:22:00,
2013-07-16 03:27:00,55.9,50.1,29.83,SW,225,0.0,6.4,81,0.00,,,0.00,WUHU216HW,2013-07-16 10:27:00,
2013-07-16 03:32:00,55.9,50.1,29.83,SSW,203,6.0,6.4,81,0.00,,,0.00,WUHU216HW,2013-07-16 10:32:00,
2013-07-16 03:37:00,55.9,50.1,29.83,SSE,158,4.4,6.0,81,0.00,,,0.00,WUHU216HW,2013-07-16 10:37:00,
2013-07-16 03:43:00,55.7,50.2,29.83,SSW,203,2.2,9.1,82,0.00,,,0.00,WUHU216HW,2013-07-16 10:43:00,
2013-07-16 03:48:00,55.7,49.9,29.83,SW,225,3.5,9.1,81,0.00,,,0.00,WUHU216HW,2013-07-16 10:48:00,
2013-07-16 03:53:00,55.7,50.2,29.83,SSW,203,0.0,7.1,82,0.00,,,0.00,WUHU216HW,2013-07-16 10:53:00,
2013-07-16 03:58:00,55.7,49.9,29.83,NNW,338,0.0,3.8,81,0.00,,,0.00,WUHU216HW,2013-07-16 10:58:00,
2013-07-16 04:03:00,55.7,49.9,29.83,WNW,293,0.0,0.0,81,0.00,,,0.00,WUHU216HW,2013-07-16 11:03:00,
2013-07-16 04:08:00,55.5,49.7,29.82,SW,225,6.4,6.4,81,0.00,,,0.00,WUHU216HW,2013-07-16 11:08:00,
2013-07-16 04:13:00,55.5,49.7,29.83,SSW,203,0.0,6.4,81,0.00,,,0.00,WUHU216HW,2013-07-16 11:13:00,
2013-07-16 04:18:00,55.5,49.7,29.83,SSW,203,3.1,6.0,81,0.00,,,0.00,WUHU216HW,2013-07-16 11:18:00,
2013-07-16 04:23:00,55.5,49.7,29.83,SW,225,0.0,6.9,81,0.00,,,0.00,WUHU216HW,2013-07-16 11:23:00,
2013-07-16 04:28:00,55.5,49.7,29.83,South,180,5.8,6.9,81,0.00,,,0.00,WUHU216HW,2013-07-16 11:28:00,
2013-07-16 04:33:00,55.5,49.7,29.83,West,270,0.0,5.8,81,0.00,,,0.00,WUHU216HW,2013-07-16 11:33:00,
2013-07-16 04:38:00,55.5,49.7,29.84,SW,225,6.0,6.0,81,0.00,,,0.00,WUHU216HW,2013-07-16 11:38:00,
2013-07-16 04:43:00,55.4,49.6,29.83,SSW,203,5.5,8.2,81,0.00,,,0.00,WUHU216HW,2013-07-16 11:43:00,
2013-07-16 04:48:00,55.2,49.4,29.84,SW,225,2.0,8.2,81,0.00,,,0.00,WUHU216HW,2013-07-16 11:48:00,
2013-07-16 04:53:00,55.2,49.7,29.84,SSW,203,4.9,4.9,82,0.00,,,0.00,WUHU216HW,2013-07-16 11:53:00,
2013-07-16 04:58:00,55.4,49.9,29.84,SW,225,6.0,9.8,82,0.00,,,0.00,WUHU216HW,2013-07-16 11:58:00,
2013-07-16 05:04:00,55.2,50.0,29.84,SW,225,2.9,9.8,83,0.00,,,0.00,WUHU216HW,2013-07-16 12:04:00,
2013-07-16 05:08:00,55.2,50.0,29.84,SW,225,2.6,8.5,83,0.00,,,0.00,WUHU216HW,2013-07-16 12:08:00,
2013-07-16 05:14:00,55.2,50.0,29.84,WSW,248,4.4,6.9,83,0.00,,,0.00,WUHU216HW,2013-07-16 12:14:00,
2013-07-16 05:19:00,55.2,50.0,29.85,SSW,203,4.2,5.8,83,0.00,,,0.00,WUHU216HW,2013-07-16 12:19:00,
2013-07-16 05:24:00,55.2,50.0,29.85,WSW,248,0.0,9.6,83,0.00,,,0.00,WUHU216HW,2013-07-16 12:24:00,
2013-07-16 05:29:00,55.2,50.3,29.85,SW,225,2.6,9.6,84,0.00,,,0.00,WUHU216HW,2013-07-16 12:29:00,
2013-07-16 05:34:00,55.2,50.3,29.85,SSW,203,0.0,3.3,84,0.00,,,0.00,WUHU216HW,2013-07-16 12:34:00,
2013-07-16 05:39:00,55.2,50.7,29.85,SW,225,6.0,6.0,85,0.00,,,0.00,WUHU216HW,2013-07-16 12:39:00,
2013-07-16 05:44:00,55.2,50.7,29.84,SSW,203,5.8,6.0,85,0.00,,,0.00,WUHU216HW,2013-07-16 12:44:00,
2013-07-16 05:49:00,55.2,50.7,29.84,SSW,203,3.5,6.0,85,0.00,,,0.00,WUHU216HW,2013-07-16 12:49:00,
2013-07-16 05:54:00,55.0,50.5,29.85,SW,225,2.9,5.1,85,0.00,,,0.00,WUHU216HW,2013-07-16 12:54:00,
2013-07-16 06:00:00,55.0,50.5,29.85,SW,225,5.3,5.3,85,0.00,,,0.00,WUHU216HW,2013-07-16 13:00:00,
2013-07-16 06:05:00,55.0,50.5,29.85,SW,225,0.0,5.3,85,0.00,,,0.00,WUHU216HW,2013-07-16 13:05:00,
2013-07-16 06:10:00,55.0,50.5,29.85,SW,225,4.9,4.9,85,0.00,,,0.00,WUHU216HW,2013-07-16 13:10:00,
2013-07-16 06:15:00,55.0,50.5,29.85,SSW,203,4.6,4.9,85,0.00,,,0.00,WUHU216HW,2013-07-16 13:15:00,
2013-07-16 06:20:00,55.0,50.8,29.86,NW,315,0.0,8.2,86,0.00,,,0.00,WUHU216HW,2013-07-16 13:20:00,
2013-07-16 06:25:00,55.0,50.8,29.86,WSW,248,0.0,8.2,86,0.00,,,0.00,WUHU216HW,2013-07-16 13:25:00,
2013-07-16 06:30:00,55.0,50.8,29.86,SW,225,5.8,5.8,86,0.00,,,0.00,WUHU216HW,2013-07-16 13:30:00,
2013-07-16 06:35:00,55.0,50.5,29.86,WSW,248,8.0,8.0,85,0.00,,,0.00,WUHU216HW,2013-07-16 13:35:00,
2013-07-16 06:40:00,55.0,50.5,29.86,SW,225,7.6,8.0,85,0.00,,,0.00,WUHU216HW,2013-07-16 13:40:00,
2013-07-16 06:45:00,54.8,50.3,29.86,South,180,3.8,8.0,85,0.00,,,0.00,WUHU216HW,2013-07-16 13:45:00,
2013-07-16 06:50:00,54.8,50.0,29.86,SSW,203,2.2,6.4,84,0.00,,,0.00,WUHU216HW,2013-07-16 13:50:00,
2013-07-16 06:55:00,54.8,50.0,29.86,SSW,203,8.7,8.7,84,0.00,,,0.00,WUHU216HW,2013-07-16 13:55:00,
2013-07-16 07:00:00,54.8,50.0,29.86,SSE,158,0.0,8.7,84,0.00,,,0.00,WUHU216HW,2013-07-16 14:00:00,
2013-07-16 07:06:00,55.0,50.2,29.86,WSW,248,1.7,8.7,84,0.00,,,0.00,WUHU216HW,2013-07-16 14:06:00,
2013-07-16 07:11:00,54.8,49.7,29.86,SSW,203,6.2,7.1,83,0.00,,,0.00,WUHU216HW,2013-07-16 14:11:00,
2013-07-16 07:16:00,55.0,49.9,29.87,SSW,203,6.2,7.1,83,0.00,,,0.00,WUHU216HW,2013-07-16 14:16:00,
2013-07-16 07:21:00,55.0,49.5,29.87,SSW,203,12.0,12.0,82,0.00,,,0.00,WUHU216HW,2013-07-16 14:21:00,
2013-07-16 07:26:00,55.0,49.2,29.87,SW,225,5.8,12.0,81,0.00,,,0.00,WUHU216HW,2013-07-16 14:26:00,
2013-07-16 07:31:00,55.0,49.2,29.88,West,270,10.0,10.0,81,0.00,,,0.00,WUHU216HW,2013-07-16 14:31:00,
2013-07-16 07:36:00,54.8,49.1,29.88,SW,225,4.4,10.0,81,0.00,,,0.00,WUHU216HW,2013-07-16 14:36:00,
2013-07-16 07:41:00,55.0,49.2,29.88,SSE,158,3.3,10.9,81,0.00,,,0.00,WUHU216HW,2013-07-16 14:41:00,
2013-07-16 07:46:00,55.0,49.2,29.88,SE,135,5.8,10.9,81,0.00,,,0.00,WUHU216HW,2013-07-16 14:46:00,
2013-07-16 07:51:00,55.0,48.9,29.88,SSW,203,5.1,8.2,80,0.00,,,0.00,WUHU216HW,2013-07-16 14:51:00,
2013-07-16 07:56:00,55.0,48.9,29.89,SW,225,5.1,9.6,80,0.00,,,0.00,WUHU216HW,2013-07-16 14:56:00,
2013-07-16 08:01:00,55.0,48.9,29.89,SW,225,6.4,12.7,80,0.00,,,0.00,WUHU216HW,2013-07-16 15:01:00,
2013-07-16 08:06:00,55.0,48.9,29.89,WSW,248,4.0,12.7,80,0.00,,,0.00,WUHU216HW,2013-07-16 15:06:00,
2013-07-16 08:11:00,55.2,49.1,29.89,SW,225,9.3,11.4,80,0.00,,,0.00,WUHU216HW,2013-07-16 15:11:00,
2013-07-16 08:16:00,55.2,49.1,29.89,South,180,12.3,12.3,80,0.00,,,0.00,WUHU216HW,2013-07-16 15:16:00,
2013-07-16 08:21:00,55.2,49.1,29.89,West,270,6.4,12.3,80,0.00,,,0.00,WUHU216HW,2013-07-16 15:21:00,
2013-07-16 08:27:00,55.2,49.1,29.89,SSW,203,1.3,12.5,80,0.00,,,0.00,WUHU216HW,2013-07-16 15:27:00,
2013-07-16 08:32:00,55.2,49.1,29.90,WSW,248,5.8,12.5,80,0.00,,,0.00,WUHU216HW,2013-07-16 15:32:00,
2013-07-16 08:37:00,55.2,49.1,29.90,SSW,203,7.3,7.3,80,0.00,,,0.00,WUHU216HW,2013-07-16 15:37:00,
2013-07-16 08:42:00,55.0,48.9,29.90,SW,225,0.8,7.3,80,0.00,,,0.00,WUHU216HW,2013-07-16 15:42:00,
2013-07-16 08:47:00,55.0,48.9,29.90,SW,225,10.9,10.9,80,0.00,,,0.00,WUHU216HW,2013-07-16 15:47:00,
2013-07-16 08:52:00,55.0,48.9,29.91,South,180,4.4,10.9,80,0.00,,,0.00,WUHU216HW,2013-07-16 15:52:00,
2013-07-16 08:57:00,54.8,48.7,29.91,WSW,248,13.1,13.1,80,0.00,,,0.00,WUHU216HW,2013-07-16 15:57:00,
2013-07-16 09:02:00,54.6,48.6,29.91,SSW,203,5.1,13.1,80,0.00,,,0.00,WUHU216HW,2013-07-16 16:02:00,
2013-07-16 09:07:00,54.6,48.9,29.91,SSW,203,4.6,8.9,81,0.00,,,0.00,WUHU216HW,2013-07-16 16:07:00,
2013-07-16 09:12:00,54.6,48.9,29.91,West,270,6.7,6.7,81,0.00,,,0.00,WUHU216HW,2013-07-16 16:12:00,
2013-07-16 09:17:00,54.6,48.9,29.92,SW,225,11.8,11.8,81,0.00,,,0.00,WUHU216HW,2013-07-16 16:17:00,
2013-07-16 09:22:00,54.8,49.1,29.92,South,180,5.8,11.8,81,0.00,,,0.00,WUHU216HW,2013-07-16 16:22:00,
2013-07-16 09:27:00,55.0,49.2,29.91,SSW,203,8.2,8.2,81,0.00,,,0.00,WUHU216HW,2013-07-16 16:27:00,
2013-07-16 09:32:00,55.0,49.2,29.92,SSW,203,6.7,8.2,81,0.00,,,0.00,WUHU216HW,2013-07-16 16:32:00,
2013-07-16 09:37:00,55.0,49.2,29.92,SSW,203,7.3,7.3,81,0.00,,,0.00,WUHU216HW,2013-07-16 16:37:00,
2013-07-16 09:42:00,55.0,49.2,29.92,SSW,203,0.0,7.3,81,0.00,,,0.00,WUHU216HW,2013-07-16 16:42:00,
2013-07-16 09:47:00,55.2,49.4,29.92,South,180,8.2,8.2,81,0.00,,,0.00,WUHU216HW,2013-07-16 16:47:00,
2013-07-16 09:53:00,55.2,49.1,29.91,South,180,1.7,8.2,80,0.00,,,0.00,WUHU216HW,2013-07-16 16:53:00,
2013-07-16 09:58:00,55.4,49.6,29.92,WSW,248,6.7,6.7,81,0.00,,,0.00,WUHU216HW,2013-07-16 16:58:00,
2013-07-16 10:03:00,55.5,49.4,29.92,WSW,248,7.8,7.8,80,0.00,,,0.00,WUHU216HW,2013-07-16 17:03:00,
2013-07-16 10:08:00,55.5,49.4,29.92,WSW,248,0.0,7.8,80,0.00,,,0.00,WUHU216HW,2013-07-16 17:08:00,
2013-07-16 10:13:00,55.7,49.9,29.92,SSW,203,11.1,11.1,81,0.00,,,0.00,WUHU216HW,2013-07-16 17:13:00,
2013-07-16 10:18:00,55.7,49.6,29.92,SW,225,8.5,11.1,80,0.00,,,0.00,WUHU216HW,2013-07-16 17:18:00,
2013-07-16 10:23:00,55.7,49.6,29.93,SSW,203,3.8,11.1,80,0.00,,,0.00,WUHU216HW,2013-07-16 17:23:00,
2013-07-16 10:28:00,55.9,49.8,29.93,SW,225,0.0,8.5,80,0.00,,,0.00,WUHU216HW,2013-07-16 17:28:00,
2013-07-16 10:33:00,56.1,50.0,29.93,WSW,248,3.5,3.8,80,0.00,,,0.00,WUHU216HW,2013-07-16 17:33:00,
2013-07-16 10:38:00,56.3,50.1,29.93,South,180,7.1,7.1,80,0.00,,,0.00,WUHU216HW,2013-07-16 17:38:00,
2013-07-16 10:43:00,56.4,50.3,29.93,NNW,338,0.0,7.1,80,0.00,,,0.00,WUHU216HW,2013-07-16 17:43:00,
2013-07-16 10:49:00,56.4,50.3,29.93,West,270,0.0,3.1,80,0.00,,,0.00,WUHU216HW,2013-07-16 17:49:00,
2013-07-16 10:54:00,56.6,50.5,29.93,SSW,203,4.2,4.2,80,0.00,,,0.00,WUHU216HW,2013-07-16 17:54:00,
2013-07-16 10:59:00,56.8,50.3,29.94,SW,225,5.5,5.5,79,0.00,,,0.00,WUHU216HW,2013-07-16 17:59:00,
2013-07-16 11:04:00,56.8,50.3,29.94,SSW,203,6.9,6.9,79,0.00,,,0.00,WUHU216HW,2013-07-16 18:04:00,
2013-07-16 11:09:00,56.8,50.3,29.94,SSW,203,0.0,6.9,79,0.00,,,0.00,WUHU216HW,2013-07-16 18:09:00,
2013-07-16 11:14:00,57.0,50.5,29.94,SW,225,3.5,6.0,79,0.00,,,0.00,WUHU216HW,2013-07-16 18:14:00,
2013-07-16 11:19:00,57.0,50.5,29.94,SW,225,4.2,6.0,79,0.00,,,0.00,WUHU216HW,2013-07-16 18:19:00,
2013-07-16 11:24:00,57.3,50.9,29.94,SW,225,6.2,6.4,79,0.00,,,0.00,WUHU216HW,2013-07-16 18:24:00,
2013-07-16 11:29:00,57.5,51.0,29.94,SW,225,7.1,7.1,79,0.00,,,0.00,WUHU216HW,2013-07-16 18:29:00,
2013-07-16 11:34:00,57.7,51.2,29.94,West,270,4.9,7.1,79,0.00,,,0.00,WUHU216HW,2013-07-16 18:34:00,
2013-07-16 11:39:00,57.9,51.0,29.94,SSW,203,1.7,4.9,78,0.00,,,0.00,WUHU216HW,2013-07-16 18:39:00,
2013-07-16 11:44:00,58.1,51.2,29.95,SSW,203,1.3,6.2,78,0.00,,,0.00,WUHU216HW,2013-07-16 18:44:00,
2013-07-16 11:50:00,58.2,51.4,29.95,SW,225,4.0,6.2,78,0.00,,,0.00,WUHU216HW,2013-07-16 18:50:00,
2013-07-16 11:55:00,58.2,51.4,29.95,SW,225,2.2,5.8,78,0.00,,,0.00,WUHU216HW,2013-07-16 18:55:00,
2013-07-16 12:00:00,58.6,51.8,29.95,SSE,158,0.0,3.8,78,0.00,,,0.00,WUHU216HW,2013-07-16 19:00:00,
2013-07-16 12:05:00,58.6,51.8,29.95,SSW,203,0.0,3.8,78,0.00,,,0.00,WUHU216HW,2013-07-16 19:05:00,
2013-07-16 12:10:00,58.8,51.9,29.95,SE,135,0.6,0.6,78,0.00,,,0.00,WUHU216HW,2013-07-16 19:10:00,
2013-07-16 12:15:00,58.8,51.9,29.95,SW,225,2.0,3.1,78,0.00,,,0.00,WUHU216HW,2013-07-16 19:15:00,
2013-07-16 12:20:00,58.8,51.6,29.95,SSW,203,9.6,9.6,77,0.00,,,0.00,WUHU216HW,2013-07-16 19:20:00,
2013-07-16 12:25:00,58.8,51.6,29.95,SW,225,5.8,9.6,77,0.00,,,0.00,WUHU216HW,2013-07-16 19:25:00,
2013-07-16 12:31:00,58.8,51.6,29.95,SE,135,4.6,9.6,77,0.00,,,0.00,WUHU216HW,2013-07-16 19:31:00,
2013-07-16 12:36:00,59.1,51.9,29.95,SW,225,0.0,4.6,77,0.00,,,0.00,WUHU216HW,2013-07-16 19:36:00,
2013-07-16 12:41:00,59.3,52.1,29.95,SW,225,3.3,3.3,77,0.00,,,0.00,WUHU216HW,2013-07-16 19:41:00,
2013-07-16 12:46:00,59.3,52.1,29.95,South,180,0.0,6.2,77,0.00,,,0.00,WUHU216HW,2013-07-16 19:46:00,
2013-07-16 12:51:00,59.5,52.3,29.96,SSW,203,3.5,6.2,77,0.00,,,0.00,WUHU216HW,2013-07-16 19:51:00,
2013-07-16 12:56:00,59.5,52.3,29.96,SW,225,0.0,6.0,77,0.00,,,0.00,WUHU216HW,2013-07-16 19:56:00,
2013-07-16 13:01:00,59.7,52.5,29.96,SSW,203,2.6,6.0,77,0.00,,,0.00,WUHU216HW,2013-07-16 20:01:00,
2013-07-16 13:06:00,59.7,52.1,29.96,SW,225,0.8,2.9,76,0.00,,,0.00,WUHU216HW,2013-07-16 20:06:00,
2013-07-16 13:11:00,59.9,52.3,29.96,SW,225,5.3,5.3,76,0.00,,,0.00,WUHU216HW,2013-07-16 20:11:00,
2013-07-16 13:16:00,59.9,52.3,29.96,SW,225,0.0,5.3,76,0.00,,,0.00,WUHU216HW,2013-07-16 20:16:00,
2013-07-16 13:21:00,60.0,52.5,29.96,WNW,293,0.0,5.3,76,0.00,,,0.00,WUHU216HW,2013-07-16 20:21:00,
2013-07-16 13:27:00,60.0,52.5,29.96,SW,225,3.3,4.4,76,0.00,,,0.00,WUHU216HW,2013-07-16 20:27:00,
2013-07-16 13:32:00,60.4,52.8,29.96,SSW,203,8.5,8.5,76,0.00,,,0.00,WUHU216HW,2013-07-16 20:32:00,
2013-07-16 13:37:00,60.4,52.8,29.96,SSW,203,0.0,8.5,76,0.00,,,0.00,WUHU216HW,2013-07-16 20:37:00,
2013-07-16 13:42:00,60.6,53.0,29.96,SW,225,6.7,6.7,76,0.00,,,0.00,WUHU216HW,2013-07-16 20:42:00,
2013-07-16 13:47:00,60.6,53.0,29.96,SSW,203,5.8,7.3,76,0.00,,,0.00,WUHU216HW,2013-07-16 20:47:00,
2013-07-16 13:52:00,60.6,53.0,29.96,SSW,203,6.9,7.3,76,0.00,,,0.00,WUHU216HW,2013-07-16 20:52:00,
2013-07-16 13:57:00,60.9,53.4,29.96,SW,225,0.0,7.1,76,0.00,,,0.00,WUHU216HW,2013-07-16 20:57:00,
2013-07-16 14:02:00,61.1,53.5,29.96,SW,225,3.5,7.1,76,0.00,,,0.00,WUHU216HW,2013-07-16 21:02:00,
2013-07-16 14:07:00,61.1,53.2,29.96,SSW,203,1.5,7.3,75,0.00,,,0.00,WUHU216HW,2013-07-16 21:07:00,
2013-07-16 14:12:00,61.3,53.3,29.96,WSW,248,4.4,7.3,75,0.00,,,0.00,WUHU216HW,2013-07-16 21:12:00,
2013-07-16 14:17:00,61.5,53.1,29.96,WSW,248,0.6,6.9,74,0.00,,,0.00,WUHU216HW,2013-07-16 21:17:00,
2013-07-16 14:22:00,61.7,53.3,29.96,SW,225,0.0,5.3,74,0.00,,,0.00,WUHU216HW,2013-07-16 21:22:00,
2013-07-16 14:27:00,62.0,53.6,29.96,WSW,248,0.8,5.3,74,0.00,,,0.00,WUHU216HW,2013-07-16 21:27:00,
2013-07-16 14:32:00,62.4,53.9,29.96,SW,225,7.6,7.6,74,0.00,,,0.00,WUHU216HW,2013-07-16 21:32:00,
2013-07-16 14:37:00,62.6,53.7,29.96,SW,225,0.0,7.6,73,0.00,,,0.00,WUHU216HW,2013-07-16 21:37:00,
2013-07-16 14:42:00,62.7,53.9,29.96,NW,315,0.0,7.6,73,0.00,,,0.00,WUHU216HW,2013-07-16 21:42:00,
2013-07-16 14:48:00,63.3,54.1,29.96,SW,225,5.8,5.8,72,0.00,,,0.00,WUHU216HW,2013-07-16 21:48:00,
2013-07-16 14:53:00,63.5,54.3,29.96,SSW,203,1.7,5.8,72,0.00,,,0.00,WUHU216HW,2013-07-16 21:53:00,
2013-07-16 14:58:00,64.0,54.8,29.96,SW,225,1.5,2.9,72,0.00,,,0.00,WUHU216HW,2013-07-16 21:58:00,
2013-07-16 15:03:00,64.2,54.6,29.96,NNW,338,0.0,3.1,71,0.00,,,0.00,WUHU216HW,2013-07-16 22:03:00,
2013-07-16 15:08:00,64.2,54.3,29.96,WNW,293,0.0,5.1,70,0.00,,,0.00,WUHU216HW,2013-07-16 22:08:00,
2013-07-16 15:13:00,64.5,54.6,29.96,WSW,248,0.0,6.9,70,0.00,,,0.00,WUHU216HW,2013-07-16 22:13:00,
2013-07-16 15:18:00,64.2,54.3,29.96,SSW,203,5.3,6.9,70,0.00,,,0.00,WUHU216HW,2013-07-16 22:18:00,
2013-07-16 15:23:00,64.0,54.1,29.96,SW,225,6.2,6.2,70,0.00,,,0.00,WUHU216HW,2013-07-16 22:23:00,
2013-07-16 15:28:00,64.0,54.1,29.96,WSW,248,8.2,8.2,70,0.00,,,0.00,WUHU216HW,2013-07-16 22:28:00,
2013-07-16 15:33:00,64.2,54.3,29.96,SSW,203,5.5,8.2,70,0.00,,,0.00,WUHU216HW,2013-07-16 22:33:00,
2013-07-16 15:38:00,64.5,54.6,29.96,North,0,0.0,8.2,70,0.00,,,0.00,WUHU216HW,2013-07-16 22:38:00,
2013-07-16 15:43:00,64.5,54.6,29.96,SW,225,0.4,6.2,70,0.00,,,0.00,WUHU216HW,2013-07-16 22:43:00,
2013-07-16 15:48:00,64.9,54.5,29.96,SSW,203,6.4,6.4,69,0.00,,,0.00,WUHU216HW,2013-07-16 22:48:00,
2013-07-16 15:53:00,64.7,54.3,29.96,NNW,338,0.0,6.4,69,0.00,,,0.00,WUHU216HW,2013-07-16 22:53:00,
2013-07-16 15:58:00,65.1,54.7,29.96,WNW,293,0.0,3.5,69,0.00,,,0.00,WUHU216HW,2013-07-16 22:58:00,
2013-07-16 16:03:00,65.3,54.8,29.96,South,180,2.6,3.5,69,0.00,,,0.00,WUHU216HW,2013-07-16 23:03:00,
2013-07-16 16:09:00,65.4,54.6,29.96,North,0,0.0,5.8,68,0.00,,,0.00,WUHU216HW,2013-07-16 23:09:00,
2013-07-16 16:14:00,65.6,54.7,29.96,WSW,248,8.2,8.2,68,0.00,,,0.00,WUHU216HW,2013-07-16 23:14:00,
2013-07-16 16:19:00,65.8,54.9,29.96,SSW,203,5.1,8.2,68,0.00,,,0.00,WUHU216HW,2013-07-16 23:19:00,
2013-07-16 16:24:00,65.8,54.9,29.96,West,270,0.0,10.0,68,0.00,,,0.00,WUHU216HW,2013-07-16 23:24:00,
2013-07-16 16:29:00,66.0,55.1,29.96,SSW,203,4.0,10.0,68,0.00,,,0.00,WUHU216HW,2013-07-16 23:29:00,
2013-07-16 16:34:00,66.2,55.2,29.96,NW,315,0.0,4.0,68,0.00,,,0.00,WUHU216HW,2013-07-16 23:34:00,
2013-07-16 16:39:00,66.2,55.2,29.96,West,270,0.0,3.3,68,0.00,,,0.00,WUHU216HW,2013-07-16 23:39:00,
2013-07-16 16:44:00,66.3,55.4,29.96,SSW,203,5.5,5.5,68,0.00,,,0.00,WUHU216HW,2013-07-16 23:44:00,
2013-07-16 16:49:00,66.3,55.0,29.96,WNW,293,0.0,5.5,67,0.00,,,0.00,WUHU216HW,2013-07-16 23:49:00,
2013-07-16 16:54:00,66.2,55.2,29.96,WSW,248,0.8,5.1,68,0.00,,,0.00,WUHU216HW,2013-07-16 23:54:00,
2013-07-16 16:59:00,66.0,55.1,29.96,NW,315,0.6,2.0,68,0.00,,,0.00,WUHU216HW,2013-07-16 23:59:00,
2013-07-16 17:04:00,66.0,55.1,29.96,West,270,0.0,5.3,68,0.00,,,0.00,WUHU216HW,2013-07-17 00:04:00,
2013-07-16 17:09:00,66.0,55.1,29.96,North,0,0.0,5.3,68,0.00,,,0.00,WUHU216HW,2013-07-17 00:09:00,
2013-07-16 17:14:00,66.0,55.5,29.96,NNW,338,0.0,1.5,69,0.00,,,0.00,WUHU216HW,2013-07-17 00:14:00,
2013-07-16 17:19:00,66.2,55.7,29.95,North,0,0.0,7.3,69,0.00,,,0.00,WUHU216HW,2013-07-17 00:19:00,
2013-07-16 17:24:00,66.0,55.5,29.95,SSW,203,5.5,7.3,69,0.00,,,0.00,WUHU216HW,2013-07-17 00:24:00,
2013-07-16 17:29:00,66.0,55.5,29.95,SSE,158,1.5,5.5,69,0.00,,,0.00,WUHU216HW,2013-07-17 00:29:00,
2013-07-16 17:34:00,66.0,55.9,29.95,SSW,203,2.4,5.8,70,0.00,,,0.00,WUHU216HW,2013-07-17 00:34:00,
2013-07-16 17:39:00,66.0,55.9,29.95,WSW,248,0.0,5.8,70,0.00,,,0.00,WUHU216HW,2013-07-17 00:39:00,
2013-07-16 17:45:00,65.8,55.7,29.95,SW,225,1.5,4.4,70,0.00,,,0.00,WUHU216HW,2013-07-17 00:45:00,
2013-07-16 17:50:00,65.8,55.7,29.95,WNW,293,0.0,5.8,70,0.00,,,0.00,WUHU216HW,2013-07-17 00:50:00,
2013-07-16 17:55:00,65.6,55.6,29.95,SW,225,6.0,6.0,70,0.00,,,0.00,WUHU216HW,2013-07-17 00:55:00,
2013-07-16 18:00:00,65.6,55.6,29.95,SW,225,0.8,6.0,70,0.00,,,0.00,WUHU216HW,2013-07-17 01:00:00,
2013-07-16 18:05:00,65.4,55.4,29.95,SW,225,0.0,0.8,70,0.00,,,0.00,WUHU216HW,2013-07-17 01:05:00,
2013-07-16 18:10:00,65.4,55.8,29.95,SW,225,0.6,1.1,71,0.00,,,0.00,WUHU216HW,2013-07-17 01:10:00,
2013-07-16 18:15:00,65.4,55.8,29.95,SSW,203,0.0,1.1,71,0.00,,,0.00,WUHU216HW,2013-07-17 01:15:00,
2013-07-16 18:20:00,65.6,55.9,29.94,West,270,0.0,0.8,71,0.00,,,0.00,WUHU216HW,2013-07-17 01:20:00,
2013-07-16 18:25:00,65.4,55.8,29.95,West,270,0.0,0.8,71,0.00,,,0.00,WUHU216HW,2013-07-17 01:25:00,
2013-07-16 18:30:00,65.4,55.8,29.95,SSW,203,4.0,4.0,71,0.00,,,0.00,WUHU216HW,2013-07-17 01:30:00,
2013-07-16 18:36:00,65.4,55.8,29.95,SSW,203,6.2,6.2,71,0.00,,,0.00,WUHU216HW,2013-07-17 01:36:00,
2013-07-16 18:41:00,65.4,55.8,29.95,SW,225,3.3,6.2,71,0.00,,,0.00,WUHU216HW,2013-07-17 01:41:00,
2013-07-16 18:46:00,65.3,55.6,29.95,SW,225,7.3,7.3,71,0.00,,,0.00,WUHU216HW,2013-07-17 01:46:00,
2013-07-16 18:51:00,65.3,55.6,29.95,SW,225,4.2,7.3,71,0.00,,,0.00,WUHU216HW,2013-07-17 01:51:00,
2013-07-16 18:56:00,64.9,54.9,29.95,SSW,203,1.3,7.3,70,0.00,,,0.00,WUHU216HW,2013-07-17 01:56:00,
2013-07-16 19:01:00,64.7,55.1,29.94,WNW,293,0.0,4.2,71,0.00,,,0.00,WUHU216HW,2013-07-17 02:01:00,
2013-07-16 19:06:00,64.5,55.0,29.95,WSW,248,0.0,1.3,71,0.00,,,0.00,WUHU216HW,2013-07-17 02:06:00,
2013-07-16 19:11:00,64.5,55.0,29.94,SW,225,0.0,4.4,71,0.00,,,0.00,WUHU216HW,2013-07-17 02:11:00,
2013-07-16 19:16:00,64.2,54.6,29.95,SW,225,7.3,7.3,71,0.00,,,0.00,WUHU216HW,2013-07-17 02:16:00,
2013-07-16 19:21:00,64.2,55.0,29.95,WSW,248,0.0,7.3,72,0.00,,,0.00,WUHU216HW,2013-07-17 02:21:00,
2013-07-16 19:26:00,64.0,54.8,29.95,SW,225,0.0,0.0,72,0.00,,,0.00,WUHU216HW,2013-07-17 02:26:00,
2013-07-16 19:31:00,64.0,54.8,29.95,WSW,248,0.0,0.0,72,0.00,,,0.00,WUHU216HW,2013-07-17 02:31:00,
2013-07-16 19:36:00,64.0,54.8,29.95,SSE,158,3.5,3.5,72,0.00,,,0.00,WUHU216HW,2013-07-17 02:36:00,
2013-07-16 19:41:00,64.0,54.8,29.95,SW,225,0.0,3.5,72,0.00,,,0.00,WUHU216HW,2013-07-17 02:41:00,
2013-07-16 19:46:00,63.6,54.8,29.95,SW,225,0.0,3.5,73,0.00,,,0.00,WUHU216HW,2013-07-17 02:46:00,
2013-07-16 19:51:00,63.5,54.6,29.95,SSW,203,0.0,3.3,73,0.00,,,0.00,WUHU216HW,2013-07-17 02:51:00,
2013-07-16 19:56:00,63.3,54.5,29.95,SSW,203,0.0,2.9,73,0.00,,,0.00,WUHU216HW,2013-07-17 02:56:00,
2013-07-16 20:02:00,63.3,54.5,29.95,SW,225,5.1,5.1,73,0.00,,,0.00,WUHU216HW,2013-07-17 03:02:00,
2013-07-16 20:07:00,63.1,54.3,29.95,SSW,203,0.0,5.1,73,0.00,,,0.00,WUHU216HW,2013-07-17 03:07:00,
2013-07-16 20:12:00,63.1,54.3,29.96,WSW,248,0.0,2.2,73,0.00,,,0.00,WUHU216HW,2013-07-17 03:12:00,
2013-07-16 20:17:00,63.1,54.3,29.96,SSW,203,0.0,0.6,73,0.00,,,0.00,WUHU216HW,2013-07-17 03:17:00,
2013-07-16 20:22:00,62.9,54.1,29.96,WNW,293,0.0,7.1,73,0.00,,,0.00,WUHU216HW,2013-07-17 03:22:00,
2013-07-16 20:27:00,62.9,54.1,29.96,SW,225,2.0,7.1,73,0.00,,,0.00,WUHU216HW,2013-07-17 03:27:00,
2013-07-16 20:32:00,62.9,54.1,29.96,SSW,203,0.0,2.0,73,0.00,,,0.00,WUHU216HW,2013-07-17 03:32:00,
2013-07-16 20:37:00,62.7,53.9,29.96,SSW,203,0.0,0.0,73,0.00,,,0.00,WUHU216HW,2013-07-17 03:37:00,
2013-07-16 20:42:00,62.7,53.9,29.96,SSW,203,0.0,0.0,73,0.00,,,0.00,WUHU216HW,2013-07-17 03:42:00,
2013-07-16 20:47:00,62.7,53.9,29.96,SSE,158,0.0,0.0,73,0.00,,,0.00,WUHU216HW,2013-07-17 03:47:00,
2013-07-16 20:52:00,62.6,53.7,29.96,SSW,203,0.0,2.2,73,0.00,,,0.00,WUHU216HW,2013-07-17 03:52:00,
2013-07-16 20:57:00,62.4,53.6,29.96,SSW,203,1.3,2.2,73,0.00,,,0.00,WUHU216HW,2013-07-17 03:57:00,
2013-07-16 21:01:00,62.4,53.6,29.96,SSW,203,0.0,1.3,73,0.00,,,0.00,WUHU216HW,2013-07-17 04:01:00,
2013-07-16 21:02:00,62.4,53.6,29.96,West,270,0.0,1.3,73,0.00,,,0.00,WUHU216HW,2013-07-17 04:02:00,
2013-07-16 21:07:00,62.4,53.6,29.96,SSW,203,0.0,0.0,73,0.00,,,0.00,WUHU216HW,2013-07-17 04:07:00,
2013-07-16 21:12:00,62.2,53.8,29.96,SW,225,3.5,3.5,74,0.00,,,0.00,WUHU216HW,2013-07-17 04:12:00,
2013-07-16 21:18:00,62.2,53.8,29.96,SW,225,0.0,3.5,74,0.00,,,0.00,WUHU216HW,2013-07-17 04:18:00,
2013-07-16 21:23:00,62.2,53.8,29.96,SW,225,0.0,1.5,74,0.00,,,0.00,WUHU216HW,2013-07-17 04:23:00,
2013-07-16 21:28:00,62.2,53.8,29.96,SW,225,2.6,2.6,74,0.00,,,0.00,WUHU216HW,2013-07-17 04:28:00,
2013-07-16 21:33:00,61.8,53.4,29.97,SSW,203,0.4,2.6,74,0.00,,,0.00,WUHU216HW,2013-07-17 04:33:00,
2013-07-16 21:38:00,61.8,53.8,29.97,SSW,203,0.0,1.5,75,0.00,,,0.00,WUHU216HW,2013-07-17 04:38:00,
2013-07-16 21:43:00,61.8,53.8,29.97,SW,225,0.0,1.3,75,0.00,,,0.00,WUHU216HW,2013-07-17 04:43:00,
2013-07-16 21:48:00,61.7,53.6,29.98,South,180,0.8,5.1,75,0.00,,,0.00,WUHU216HW,2013-07-17 04:48:00,
2013-07-16 21:53:00,61.5,53.5,29.98,SW,225,0.8,5.1,75,0.00,,,0.00,WUHU216HW,2013-07-17 04:53:00,
2013-07-16 21:56:00,61.5,53.5,29.98,SW,225,0.8,5.1,75,0.00,,,0.00,WUHU216HW,2013-07-17 04:56:00,
2013-07-16 22:00:00,61.3,53.3,29.98,SSW,203,3.5,3.5,75,0.00,,,0.00,WUHU216HW,2013-07-17 05:00:00,
2013-07-16 22:05:00,61.3,53.3,29.98,SSW,203,0.0,3.5,75,0.00,,,0.00,WUHU216HW,2013-07-17 05:05:00,
2013-07-16 22:10:00,61.1,53.2,29.99,SW,225,0.0,3.5,75,0.00,,,0.00,WUHU216HW,2013-07-17 05:10:00,
2013-07-16 22:16:00,61.1,53.2,29.99,SSW,203,2.0,2.0,75,0.00,,,0.00,WUHU216HW,2013-07-17 05:16:00,
2013-07-16 22:21:00,61.1,53.2,29.99,SW,225,1.1,4.4,75,0.00,,,0.00,WUHU216HW,2013-07-17 05:21:00,
2013-07-16 22:26:00,61.3,53.2,29.99,SSW,203,4.9,4.9,75,0.00,,,0.00,WUHU216HW,2013-07-17 05:26:00,
2013-07-16 22:31:00,61.1,53.2,29.99,SW,225,3.1,4.9,75,0.00,,,0.00,WUHU216HW,2013-07-17 05:31:00,
2013-07-16 22:36:00,61.1,53.2,29.99,SSW,203,0.0,4.9,75,0.00,,,0.00,WUHU216HW,2013-07-17 05:36:00,
2013-07-16 22:41:00,60.9,53.0,29.99,SSE,158,0.0,1.1,75,0.00,,,0.00,WUHU216HW,2013-07-17 05:41:00,
2013-07-16 22:46:00,60.9,53.4,29.99,SW,225,0.0,0.0,76,0.00,,,0.00,WUHU216HW,2013-07-17 05:46:00,
2013-07-16 22:51:00,60.6,53.0,29.98,SSW,203,0.0,0.0,76,0.00,,,0.00,WUHU216HW,2013-07-17 05:51:00,
2013-07-16 22:56:00,60.6,53.0,29.99,SSW,203,0.0,0.0,76,0.00,,,0.00,WUHU216HW,2013-07-17 05:56:00,
2013-07-16 23:01:00,60.8,53.2,29.99,SSW,203,3.3,3.3,76,0.00,,,0.00,WUHU216HW,2013-07-17 06:01:00,
2013-07-16 23:06:00,60.8,53.2,29.99,South,180,0.0,5.8,76,0.00,,,0.00,WUHU216HW,2013-07-17 06:06:00,
2013-07-16 23:11:00,60.6,53.0,29.99,SSW,203,0.8,5.8,76,0.00,,,0.00,WUHU216HW,2013-07-17 06:11:00,
2013-07-16 23:17:00,60.6,53.0,29.98,SSW,203,0.0,0.8,76,0.00,,,0.00,WUHU216HW,2013-07-17 06:17:00,
2013-07-16 23:22:00,60.6,53.0,29.98,SW,225,0.0,0.0,76,0.00,,,0.00,WUHU216HW,2013-07-17 06:22:00,
2013-07-16 23:27:00,60.6,53.0,29.98,SW,225,5.3,5.3,76,0.00,,,0.00,WUHU216HW,2013-07-17 06:27:00,
2013-07-16 23:32:00,60.6,53.0,29.98,SSW,203,0.0,5.3,76,0.00,,,0.00,WUHU216HW,2013-07-17 06:32:00,
2013-07-16 23:37:00,60.6,53.0,29.98,SSW,203,0.0,1.7,76,0.00,,,0.00,WUHU216HW,2013-07-17 06:37:00,
2013-07-16 23:42:00,60.6,53.0,29.98,SSW,203,0.0,0.0,76,0.00,,,0.00,WUHU216HW,2013-07-17 06:42:00,
2013-07-16 23:47:00,60.6,53.0,29.98,SW,225,0.0,0.0,76,0.00,,,0.00,WUHU216HW,2013-07-17 06:47:00,
2013-07-16 23:52:00,60.6,53.0,29.98,SSW,203,0.0,0.0,76,0.00,,,0.00,WUHU216HW,2013-07-17 06:52:00,
2013-07-16 23:57:00,60.6,52.7,29.98,West,270,0.0,0.0,75,0.00,,,0.00,WUHU216HW,2013-07-17 06:57:00,